Hourly Data Report for January 29, 2004

TORONTO CITY
ONTARIO

43°40'00.000" N
79°24'00.000" W
112.50 m
6158355
71508
XTO

Download Data

Hourly Data (January 2004)
Hourly Data Report for January 29, 2004
TIME
LST
Temp Definition
°C
Dew Point Definition
°C
Rel Hum Definition
%
Precip. Amount Definition
mm

Wind Dir Definition
10's deg

Wind Spd Definition
km/h
Visibility Definition
km
Stn Press Definition
kPa
Hmdx Definition


Wind Chill Definition


Weather Definition


00:00 -5.4 -9.3 74   LegendMM LegendMM LegendMM 99.42     LegendNANA
01:00 -6.5 -10.9 71   LegendMM LegendMM LegendMM 99.42     LegendNANA
02:00 -7.5 -11.9 71   LegendMM LegendMM LegendMM 99.48     LegendNANA
03:00 -8.2 -12.5 71   LegendMM LegendMM LegendMM 99.52     LegendNANA
04:00 -8.8 -13.0 72   LegendMM LegendMM LegendMM 99.54     LegendNANA
05:00 -9.0 -13.0 73   LegendMM LegendMM LegendMM 99.61     LegendNANA
06:00 -9.6 -13.2 75   LegendMM LegendMM LegendMM 99.68     LegendNANA
07:00 -9.8 -12.9 78   LegendMM LegendMM LegendMM 99.73     LegendNANA
08:00 -10.0 -14.9 67   LegendMM LegendMM LegendMM 99.78     LegendNANA
09:00 -9.6 -15.1 64   LegendMM LegendMM LegendMM 99.82     LegendNANA
10:00 -9.4 -15.0 64   LegendMM LegendMM LegendMM 99.87     LegendNANA
11:00 -8.4 -14.6 61   LegendMM LegendMM LegendMM 99.86     LegendNANA
12:00 -8.2 -13.9 63   LegendMM LegendMM LegendMM 99.83     LegendNANA
13:00 -8.9 -11.7 80   LegendMM LegendMM LegendMM 99.84     LegendNANA
14:00 -9.0 -10.7 87   LegendMM LegendMM LegendMM 99.83     LegendNANA
15:00 -8.5 -11.8 77   LegendMM LegendMM LegendMM 99.83     LegendNANA
16:00 -8.3 -13.2 68   LegendMM LegendMM LegendMM 99.84     LegendNANA
17:00 -9.0 -13.6 69   LegendMM LegendMM LegendMM 99.83     LegendNANA
18:00 -9.4 -13.9 70   LegendMM LegendMM LegendMM 99.83     LegendNANA
19:00 -10.0 -14.3 71   LegendMM LegendMM LegendMM 99.83     LegendNANA
20:00 -10.5 -14.8 71   LegendMM LegendMM LegendMM 99.79     LegendNANA
21:00 -10.9 -15.0 72   LegendMM LegendMM LegendMM 99.71     LegendNANA
22:00 -11.2 -15.2 72   LegendMM LegendMM LegendMM 99.66     LegendNANA
23:00 -11.3 -15.2 73   LegendMM LegendMM LegendMM 99.60     LegendNANA

Notes on Data Quality.

Legend

  • E = Estimated
  • M = Missing
  • NA = Not Available*
  • [empty] = Indicates an unobserved value
Date modified: